Details From YMML - Melbourne Intl
To YPAD - Adelaide Intl
Flight Number -
Tags Generated
Created
Modified
Stats Distance 346 nm / 641 km
Max Altitude 0 ft / 0 m
Waypoints 3
Social Downloads 0
Likes 0
Share VATSIM

Download

Looking for another format? Having issues loading an existing format? Contact us
Advertisement - Login to hide

Notes

Generated

Route

YMML AD YPAD

ID Type Via Altitude Latitude Longitude Leg Dist Tot Dist Heading (true) Name
O YMML APT - 0 ft / 0 m -37.66220˚ 144.84819˚ - 0 nm - -
AD NDB - 0 ft / 0 m -34.94639˚ 138.54611˚ 345 nm 345 nm 296° / 300° ADELAIDE NDB
O YPAD APT - 0 ft / 0 m -34.94168˚ 138.54233˚ 0 nm 346 nm 327° / 327° -

Altitude Profile

Advertisement - Login to hide

Weather


0- 5 10 15 20 25 30 35+ Temperature / ° C

Clouds and Precipitation
Forecast for 2017-12-15 18:00 UTC. Updated 34 minutes ago

Ground ~20,000 ft ~40,000 ft Winds

YMML

Details ICAO YMML (MEL)
Name Melbourne Intl
Region Australia
Timezone Australia/Melbourne (UTC+11.0)
Stats Elevation 433 ft / 132 m (AMSL)
Location -37.665301° 144.836668°
Runways 2
Magnetic Variation 11.504° E

METAR

YMML 151530Z 29006KT CAVOK 12/10 Q1013 NOSIG

Decode

TAF

TAF YMML 151108Z 1512/1618 18008KT CAVOK BECMG 1514/1516 29006KT CAVOK BECMG 1521/1523 18010KT CAVOK FM160500 17015KT CAVOK FM161000 17010KT CAVOK FM161500 22006KT 9999 SCT012

Decode

Departure Runways

ID Width Length Bearing (true) Bearing (mag) Surface Threshold Offset Overrun Length
09 148 ft / 45 m 7,494 ft / 2,284 m 94.01° 82.51° Asphalt 0 ft / 0 m 0 ft / 0 m
16 148 ft / 45 m 12,008 ft / 3,660 m 171.02° 159.52° Asphalt 98 ft / 30 m 0 ft / 0 m
27 148 ft / 45 m 7,494 ft / 2,284 m 274.00° 262.50° Asphalt 0 ft / 0 m 0 ft / 0 m
34 148 ft / 45 m 12,008 ft / 3,660 m 351.01° 339.51° Asphalt 98 ft / 30 m 0 ft / 0 m

YPAD

Details ICAO YPAD (ADL)
Name Adelaide Intl
Region Australia
Timezone Australia/Adelaide (UTC+10.5)
Stats Elevation 20 ft / 6 m (AMSL)
Location -34.947439° 138.529850°
Runways 2
Magnetic Variation 7.927° E

METAR

YPAD 151530Z 20005KT CAVOK 16/11 Q1013 NOSIG

Decode

TAF

TAF YPAD 151131Z 1512/1618 15006KT CAVOK FM151800 VRB05KT CAVOK FM160100 22014KT CAVOK FM160900 15010KT CAVOK FM161500 11008KT CAVOK

Decode

Destination Runways

ID Width Length Bearing (true) Bearing (mag) Surface Threshold Offset Overrun Length
05 151 ft / 46 m 10,173 ft / 3,101 m 50.14° 42.21° Asphalt 518 ft / 158 m 0 ft / 0 m
12 151 ft / 46 m 5,414 ft / 1,650 m 123.61° 115.68° Asphalt 0 ft / 0 m 0 ft / 0 m
23 151 ft / 46 m 10,173 ft / 3,101 m 230.13° 222.20° Asphalt 0 ft / 0 m 203 ft / 62 m
30 151 ft / 46 m 5,414 ft / 1,650 m 303.60° 295.67° Asphalt 0 ft / 0 m 0 ft / 0 m

Approach Navaids

Runway Type Ident Frequency Range Bearing (true) Bearing (mag) Slope Elevation
23 Localiser IAD 109.70 MHz 18 nm / 33 km 230.13° 222.20° - 20 ft / 6 m (AMSL)
23 Glidescope IAD 109.70 MHz 10 nm / 19 km 230.13° 222.21° 3.00° 20 ft / 6 m (AMSL)

Popular Alternatives